SKYSAT-C1

Last updated on Sun Jun 21 2026 00:02:52 GMT+0000 (Coordinated Universal Time)

1 41601U 16040C 26171.34273712 .00007564 00000+0 21549-3 0 9994 2 41601 96.9560 202.8917 0003195 52.2877 307.8658 15.36345796558359
UTC large
Height (km)
Speed (km/s)
/
Latitude / Longitude
Inclination (degrees)
Orbital Period (minutes)
Azimuth
Elevation
Range (km)
Doppler Factor

Next 0 passes for location: London (51.5072 / 0.1276)

No passes found over London.
SKYSAT-C1